Torna al catalogo

COSMOS 252 DEB

AttivoLEO
NORAD 3555·DEBRIS·🇷🇺 Russia

Lanciato Nov 1, 1968 da Baikonur Cosmodrome

Loading…

Prossimi Passaggi (prossime 24 ore)

TLE

AggiornatoSource: Space-Track

Epoca: Sep 14, 2026, 10:05 UTC

1 03555U 68097H   26257.42044056  .00000634  00000-0  28117-3 0  9990
2 03555  62.3229  45.8775 0892800 193.2190 164.3951 13.08550482748488

Traccia COSMOS 252 DEB in tempo reale con AllMySat

Download on the App Store